Home > Weather > Arlington > Past weeks

Flag for USA Past Weather in Arlington, Texas, USA — Yesterday and Last 2 Weeks

Now
83 °F

Clear.


Feels Like: 86 °F
Forecast: 80 / 98 °F
Wind: 10 mph from South

Location: Arlington Municipal Airport

Current Time: Jul 31, 2016 at 2:35:02 AM

Latest Report: Jul 31, 2016 at 1:53 AM


Visibility: 10 mi

Pressure: 29.91 "Hg

Humidity: 63%

Dew Point: 69 °F

Location of ArlingtonLocation

Past Weather in Arlington — Graph

°F

Arlington Temperature Yesterday

Maximum temperature yesterday: 98 °F (at 5:53 PM)
Minimum temperature yesterday: 78 °F (at 6:53 AM)
Average temperature yesterday: 88 °F

High & Low Weather Summary for the Past Weeks

 TemperatureHumidityPressure
High99 °F (Jul 22, 3:53 PM)91% (Jul 26, 5:53 AM)30.21 "Hg (Jul 26, 5:53 AM)
Low74 °F (Jul 22, 6:53 AM)31% (Jul 22, 3:53 PM)29.82 "Hg (Jul 23, 6:53 PM)
Average87 °F60%29.97 "Hg
* Reported Jul 16 7:53 AM — Jul 31 12:53 AM, Arlington, Weather by CustomWeather, © 2016

Note: Actual official high and low records may vary slightly from our data, if they occured in-between our weather recording intervals... More about our weather records

Advertising

Arlington Weather History for the Previous 24 Hours

Scroll right to see more
 ConditionsComfort  
Time TempWeatherWind HumidityBarometerVisibility
12:53 AM
Sun, Jul 31
84 °FClear.8 mph59%29.91 "Hg10 mi
11:53 PM
Sat, Jul 30
85 °FClear.9 mph57%29.90 "Hg10 mi
10:53 PM86 °FClear.9 mph55%29.91 "Hg10 mi
9:53 PM88 °FClear.9 mph50%29.90 "Hg10 mi
8:53 PM89 °FSunny.8 mph46%29.88 "Hg10 mi
7:53 PM94 °FSunny.8 mph37%29.86 "Hg10 mi
6:53 PM97 °FSunny.15 mph34%29.86 "Hg10 mi
5:53 PM98 °FSunny.9 mph32%29.87 "Hg10 mi
4:53 PM97 °FSunny.7 mph33%29.88 "Hg10 mi
3:53 PM96 °FPassing clouds.5 mph36%29.90 "Hg10 mi
2:53 PM95 °FPartly sunny.7 mph40%29.92 "Hg10 mi
1:53 PM96 °FScattered clouds.N/A37%29.94 "Hg10 mi
12:53 PM94 °FSunny.8 mph41%29.96 "Hg10 mi
11:53 AM92 °FSunny.6 mph47%29.98 "Hg10 mi
10:53 AM89 °FSunny.8 mph55%29.98 "Hg10 mi
9:53 AM87 °FSunny.9 mph61%29.98 "Hg10 mi
8:53 AM83 °FSunny.8 mph70%29.98 "Hg10 mi
7:53 AM80 °FSunny.6 mph76%29.97 "Hg10 mi
6:53 AM78 °FClear.6 mph79%29.97 "Hg10 mi
5:53 AM79 °FClear.5 mph77%29.95 "Hg10 mi
4:53 AM79 °FClear.7 mph79%29.94 "Hg10 mi
3:53 AM80 °FPassing clouds.8 mph76%29.94 "Hg10 mi
2:53 AM82 °FClear.9 mph72%29.94 "Hg10 mi
Weather by CustomWeather, © 2016

See weather overviewHow to use our weather pages